Location: Unspecified
(39.0670°S, 0.0000°E)
Time: 03:38:25
(UTC+00:00)

Envisat - Visible Passes

Search period start: 26 June 2019 00:00
Search period end: 06 July 2019 00:00
Orbit: 764 x 766 km, 98.1° (Epoch: 25 June)

Date Brightness Start Highest point End Pass type
(mag) Time Alt. Az. Time Alt. Az. Time Alt. Az.
26 Jun 5.6 05:06:55 10° ENE 05:10:09 17° ESE 05:13:22 10° SSE visible
26 Jun 3.2 06:43:38 10° N 06:48:39 58° W 06:53:44 10° SSW visible
26 Jun 3.8 19:00:32 36° NNE 19:00:32 36° NNE 19:03:45 10° N visible
27 Jun 3.5 06:06:53 10° NNE 06:11:55 63° ESE 06:17:01 10° S visible
27 Jun 4.4 18:23:17 21° ENE 18:23:17 21° ENE 18:25:54 10° NNE visible
27 Jun 5.1 20:03:29 23° WNW 20:03:29 23° WNW 20:05:36 10° NW visible
28 Jun 4.9 05:31:03 10° NE 05:35:23 29° ESE 05:39:45 10° S visible
28 Jun 3.9 19:26:13 40° NNW 19:26:13 40° NNW 19:29:25 10° NNW visible
29 Jun 5.8 04:56:37 10° E 04:59:03 14° ESE 05:01:30 10° SSE visible
29 Jun 3.0 06:32:18 10° N 06:37:24 74° WNW 06:42:34 10° SSW visible
29 Jun 3.8 18:48:57 34° NE 18:48:57 34° NE 18:52:19 10° N visible
29 Jun 5.7 20:29:09 14° WNW 20:29:09 14° WNW 20:30:06 10° WNW visible
30 Jun 3.9 05:55:49 10° NE 06:00:43 49° ESE 06:05:41 10° S visible
30 Jun 4.5 18:11:42 17° ENE 18:11:42 17° ENE 18:14:02 10° NE visible
30 Jun 4.6 19:51:54 30° NW 19:51:54 30° NW 19:54:38 10° NW visible
01 Jul 5.2 05:20:18 10° ENE 05:24:15 23° ESE 05:28:14 10° SSE visible
01 Jul 3.6 19:14:38 46° N 19:14:38 46° N 19:18:10 10° N visible
02 Jul 6.0 04:46:56 10° ESE 04:47:59 11° ESE 04:49:02 10° SE visible
02 Jul 3.1 06:21:03 10° NNE 06:26:10 87° ESE 06:31:21 10° SSW visible
02 Jul 3.9 18:37:22 30° ENE 18:37:22 30° ENE 18:40:47 10° NNE visible
02 Jul 5.4 20:17:33 19° WNW 20:17:33 19° WNW 20:19:22 10° NW visible
03 Jul 4.4 05:44:50 10° NE 05:49:33 39° ESE 05:54:19 10° S visible
03 Jul 4.7 18:00:05 14° ENE 18:00:05 14° ENE 18:01:56 10° NE visible
03 Jul 4.1 19:40:17 39° NW 19:40:17 39° NW 19:43:34 10° NNW visible
04 Jul 5.5 05:09:41 10° ENE 05:13:08 19° ESE 05:16:37 10° SSE visible
04 Jul 3.2 06:46:43 10° N 06:51:42 52° W 06:56:44 10° SSW visible
04 Jul 3.4 19:03:01 47° NNE 19:03:01 47° NNE 19:06:51 10° N visible
04 Jul 6.0 20:43:13 11° W 20:43:13 11° W 20:43:26 10° W visible
05 Jul 3.4 06:09:52 10° NNE 06:14:56 69° ESE 06:20:05 10° S visible
05 Jul 4.1 18:25:44 25° ENE 18:25:44 25° ENE 18:29:08 10° NNE visible
05 Jul 4.9 20:05:56 25° WNW 20:05:56 25° WNW 20:08:31 10° NW visible
